Time,TemperatureF,DewpointF,PressureIn,WindDirection,WindDirectionDegrees,WindSpeedMPH,WindSpeedGustMPH,Humidity,HourlyPrecipIn,Conditions,Clouds,dailyrainin,SoftwareType,DateUTC
2013-11-29 00:00:00,22.8,22.1,30.36,SW,225,2.7,-999.0,97,-99.99,,,0.00,Acu-Link.com,2013-11-29 05:00:00,
2013-11-29 00:15:00,22.6,21.9,30.36,WSW,247,2.2,-999.0,97,-99.99,,,0.00,Acu-Link.com,2013-11-29 05:15:00,
2013-11-29 00:30:00,22.6,22.1,30.36,SW,225,2.7,-999.0,98,-99.99,,,0.00,Acu-Link.com,2013-11-29 05:30:00,
2013-11-29 00:45:00,22.6,22.1,30.36,West,270,3.7,-999.0,98,-99.99,,,0.00,Acu-Link.com,2013-11-29 05:45:00,
2013-11-29 01:00:00,22.5,22.0,30.36,West,270,2.2,-999.0,98,-99.99,,,0.00,Acu-Link.com,2013-11-29 06:00:00,
2013-11-29 01:15:00,22.3,21.8,30.36,WSW,247,2.7,-999.0,98,-99.99,,,0.00,Acu-Link.com,2013-11-29 06:15:00,
2013-11-29 01:30:00,22.3,21.8,30.37,West,270,1.7,-999.0,98,-99.99,,,0.00,Acu-Link.com,2013-11-29 06:30:00,
2013-11-29 01:46:00,22.1,21.6,30.37,SW,225,1.7,-999.0,98,-99.99,,,0.00,Acu-Link.com,2013-11-29 06:46:00,
2013-11-29 02:01:00,21.7,21.2,30.37,SW,225,0.0,-999.0,98,-99.99,,,0.00,Acu-Link.com,2013-11-29 07:01:00,
2013-11-29 02:16:00,21.2,21.0,30.38,SW,225,1.1,-999.0,99,-99.99,,,0.00,Acu-Link.com,2013-11-29 07:16:00,
2013-11-29 02:31:00,21.0,20.8,30.39,West,270,1.7,-999.0,99,-99.99,,,0.00,Acu-Link.com,2013-11-29 07:31:00,
2013-11-29 02:46:00,20.8,20.6,30.38,West,270,2.7,-999.0,99,-99.99,,,0.00,Acu-Link.com,2013-11-29 07:46:00,
2013-11-29 03:01:00,21.0,20.8,30.39,West,270,2.2,-999.0,99,-99.99,,,0.00,Acu-Link.com,2013-11-29 08:01:00,
2013-11-29 03:16:00,21.4,21.2,30.39,West,270,1.7,-999.0,99,-99.99,,,0.00,Acu-Link.com,2013-11-29 08:16:00,
2013-11-29 03:31:00,21.6,21.4,30.39,West,270,1.7,-999.0,99,-99.99,,,0.00,Acu-Link.com,2013-11-29 08:31:00,
2013-11-29 03:46:00,21.6,21.4,30.38,SW,225,1.7,-999.0,99,-99.99,,,0.00,Acu-Link.com,2013-11-29 08:46:00,
2013-11-29 04:02:00,21.6,21.4,30.39,WSW,247,1.7,-999.0,99,-99.99,,,0.00,Acu-Link.com,2013-11-29 09:02:00,
2013-11-29 04:17:00,21.4,21.2,30.40,West,270,2.2,-999.0,99,-99.99,,,0.00,Acu-Link.com,2013-11-29 09:17:00,
2013-11-29 04:32:00,21.2,21.0,30.40,West,270,2.7,-999.0,99,-99.99,,,0.00,Acu-Link.com,2013-11-29 09:32:00,
2013-11-29 04:47:00,21.4,21.2,30.42,West,270,2.7,-999.0,99,-99.99,,,0.00,Acu-Link.com,2013-11-29 09:47:00,
2013-11-29 05:02:00,21.4,21.2,30.41,West,270,2.2,-999.0,99,-99.99,,,0.00,Acu-Link.com,2013-11-29 10:02:00,
2013-11-29 05:17:00,21.6,21.4,30.43,WNW,292,3.2,-999.0,99,-99.99,,,0.00,Acu-Link.com,2013-11-29 10:17:00,
2013-11-29 05:32:00,21.6,21.4,30.43,WSW,247,3.2,-999.0,99,-99.99,,,0.00,Acu-Link.com,2013-11-29 10:32:00,
2013-11-29 05:47:00,21.6,21.4,30.43,West,270,3.2,-999.0,99,-99.99,,,0.00,Acu-Link.com,2013-11-29 10:47:00,
2013-11-29 06:02:00,21.7,21.5,30.43,WSW,247,4.7,-999.0,99,-99.99,,,0.00,Acu-Link.com,2013-11-29 11:02:00,
2013-11-29 06:18:00,21.9,21.7,30.44,West,270,5.8,-999.0,99,-99.99,,,0.00,Acu-Link.com,2013-11-29 11:18:00,
2013-11-29 06:33:00,21.2,21.0,30.45,West,270,2.7,-999.0,99,-99.99,,,0.00,Acu-Link.com,2013-11-29 11:33:00,
2013-11-29 06:48:00,20.3,20.1,30.45,West,270,2.7,-999.0,99,-99.99,,,0.00,Acu-Link.com,2013-11-29 11:48:00,
2013-11-29 07:03:00,19.0,18.8,30.46,West,270,3.7,-999.0,99,-99.99,,,0.00,Acu-Link.com,2013-11-29 12:03:00,
2013-11-29 07:18:00,17.4,16.9,30.48,WSW,247,2.7,-999.0,98,-99.99,,,0.00,Acu-Link.com,2013-11-29 12:18:00,
2013-11-29 07:33:00,16.5,16.3,30.48,West,270,2.7,-999.0,99,-99.99,,,0.00,Acu-Link.com,2013-11-29 12:33:00,
2013-11-29 07:48:00,15.6,15.1,30.50,WSW,247,2.7,-999.0,98,-99.99,,,0.00,Acu-Link.com,2013-11-29 12:48:00,
2013-11-29 08:03:00,15.3,15.1,30.50,SW,225,3.2,-999.0,99,-99.99,,,0.00,Acu-Link.com,2013-11-29 13:03:00,
2013-11-29 08:19:00,16.2,16.0,30.51,West,270,3.7,-999.0,99,-99.99,,,0.00,Acu-Link.com,2013-11-29 13:19:00,
2013-11-29 08:34:00,16.7,16.2,30.51,West,270,3.7,-999.0,98,-99.99,,,0.00,Acu-Link.com,2013-11-29 13:34:00,
2013-11-29 08:49:00,20.8,18.3,30.53,West,270,3.7,-999.0,90,-99.99,,,0.00,Acu-Link.com,2013-11-29 13:49:00,
2013-11-29 09:04:00,23.2,18.8,30.52,West,270,4.2,-999.0,83,-99.99,,,0.00,Acu-Link.com,2013-11-29 14:04:00,
2013-11-29 09:19:00,24.6,19.3,30.53,WSW,247,4.7,-999.0,80,-99.99,,,0.00,Acu-Link.com,2013-11-29 14:19:00,
2013-11-29 09:34:00,25.5,19.3,30.55,WSW,247,3.7,-999.0,77,-99.99,,,0.00,Acu-Link.com,2013-11-29 14:34:00,
2013-11-29 09:49:00,27.3,20.1,30.55,West,270,3.7,-999.0,74,-99.99,,,0.00,Acu-Link.com,2013-11-29 14:49:00,
2013-11-29 10:05:00,29.1,20.6,30.56,West,270,4.7,-999.0,70,-99.99,,,0.00,Acu-Link.com,2013-11-29 15:05:00,
2013-11-29 10:20:00,26.1,19.3,30.57,West,270,4.7,-999.0,75,-99.99,,,0.00,Acu-Link.com,2013-11-29 15:20:00,
2013-11-29 10:35:00,27.3,19.8,30.57,West,270,6.8,-999.0,73,-99.99,,,0.00,Acu-Link.com,2013-11-29 15:35:00,
2013-11-29 10:50:00,28.9,20.4,30.57,West,270,5.8,-999.0,70,-99.99,,,0.00,Acu-Link.com,2013-11-29 15:50:00,
2013-11-29 11:05:00,29.8,19.9,30.57,West,270,3.7,-999.0,66,-99.99,,,0.00,Acu-Link.com,2013-11-29 16:05:00,
2013-11-29 11:20:00,29.5,18.8,30.57,NW,315,4.7,-999.0,64,-99.99,,,0.00,Acu-Link.com,2013-11-29 16:20:00,
2013-11-29 11:35:00,29.5,18.1,30.56,West,270,6.8,-999.0,62,-99.99,,,0.00,Acu-Link.com,2013-11-29 16:35:00,
2013-11-29 11:50:00,30.2,18.0,30.56,West,270,4.2,-999.0,60,-99.99,,,0.00,Acu-Link.com,2013-11-29 16:50:00,
2013-11-29 12:06:00,31.5,18.0,30.55,NW,315,6.3,-999.0,57,-99.99,,,0.00,Acu-Link.com,2013-11-29 17:06:00,
2013-11-29 12:21:00,28.2,15.3,30.55,WNW,292,4.7,-999.0,58,-99.99,,,0.00,Acu-Link.com,2013-11-29 17:21:00,
2013-11-29 12:36:00,28.0,15.9,30.56,West,270,6.8,-999.0,60,-99.99,,,0.00,Acu-Link.com,2013-11-29 17:36:00,
2013-11-29 12:51:00,28.4,15.1,30.56,WNW,292,4.2,-999.0,57,-99.99,,,0.00,Acu-Link.com,2013-11-29 17:51:00,
2013-11-29 13:06:00,28.8,15.1,30.57,WNW,292,5.3,-999.0,56,-99.99,,,0.00,Acu-Link.com,2013-11-29 18:06:00,
2013-11-29 13:21:00,28.9,16.0,30.57,West,270,5.3,-999.0,58,-99.99,,,0.00,Acu-Link.com,2013-11-29 18:21:00,
2013-11-29 13:36:00,29.7,16.8,30.57,WNW,292,3.7,-999.0,58,-99.99,,,0.00,Acu-Link.com,2013-11-29 18:36:00,
2013-11-29 13:54:00,28.8,16.3,30.57,WNW,292,3.2,-999.0,59,-99.99,,,0.00,Acu-Link.com,2013-11-29 18:54:00,
2013-11-29 14:15:00,28.8,16.3,30.58,West,270,4.7,-999.0,59,-99.99,,,0.00,Acu-Link.com,2013-11-29 19:15:00,
2013-11-29 14:49:00,26.4,15.9,30.59,West,270,2.2,-999.0,64,-99.99,,,0.00,Acu-Link.com,2013-11-29 19:49:00,
2013-11-29 15:08:00,26.2,15.7,30.60,West,270,3.2,-999.0,64,-99.99,,,0.00,Acu-Link.com,2013-11-29 20:08:00,
2013-11-29 15:28:00,25.9,15.1,30.60,WNW,292,3.7,-999.0,63,-99.99,,,0.00,Acu-Link.com,2013-11-29 20:28:00,
2013-11-29 15:43:00,25.3,14.9,30.61,West,270,3.2,-999.0,64,-99.99,,,0.00,Acu-Link.com,2013-11-29 20:43:00,
2013-11-29 15:58:00,24.6,14.5,30.62,West,270,3.7,-999.0,65,-99.99,,,0.00,Acu-Link.com,2013-11-29 20:58:00,
2013-11-29 16:13:00,25.3,14.5,30.62,West,270,4.2,-999.0,63,-99.99,,,0.00,Acu-Link.com,2013-11-29 21:13:00,
2013-11-29 16:28:00,23.2,13.2,30.62,West,270,3.2,-999.0,65,-99.99,,,0.00,Acu-Link.com,2013-11-29 21:28:00,
2013-11-29 16:45:00,21.6,13.0,30.62,WNW,292,0.0,-999.0,69,-99.99,,,0.00,Acu-Link.com,2013-11-29 21:45:00,
2013-11-29 17:00:00,19.9,13.0,30.62,West,270,1.7,-999.0,74,-99.99,,,0.00,Acu-Link.com,2013-11-29 22:00:00,
2013-11-29 17:15:00,19.2,12.6,30.62,SW,225,1.7,-999.0,75,-99.99,,,0.00,Acu-Link.com,2013-11-29 22:15:00,